Location: Red Rock Farm
(35.2100°N, 97.2200°W)
Time: 01:14:15
(UTC-06:00)

ISS - All Passes

Search period start: 06 February 2016 00:00
Search period end: 16 February 2016 00:00
Orbit: 399 x 408 km, 51.6° (Epoch: 06 February)

Date Brightness Start Highest point End Pass type
(mag) Time Alt. Az. Time Alt. Az. Time Alt. Az.
06 Feb - 01:15:26 10° WNW 01:18:32 43° SW 01:21:38 10° SSE night (unlit)
06 Feb - 16:16:54 10° S 16:19:34 23° SE 16:22:14 10° ENE daylight
06 Feb - 17:53:06 10° W 17:55:56 27° NW 17:58:46 10° NNE daylight
06 Feb - 22:47:56 10° N 22:49:09 12° NNE 22:50:22 10° NE night (unlit)
07 Feb - 00:22:48 10° NW 00:26:03 81° NE 00:29:17 10° SE night (unlit)
07 Feb - 15:26:10 10° SE 15:27:13 11° SE 15:28:17 10° ESE daylight
07 Feb - 17:00:07 10° WSW 17:03:18 53° NW 17:06:29 10° NE daylight
07 Feb - 23:30:25 10° NNW 23:33:28 37° NE 23:36:31 10° ESE night (unlit)
08 Feb - 01:07:35 10° W 01:09:41 16° SW 01:11:46 10° SSW night (unlit)
08 Feb - 16:07:31 10° SW 16:10:44 69° SE 16:13:58 10° NE daylight
08 Feb - 17:45:39 10° WNW 17:47:30 14° NNW 17:49:21 10° N daylight
08 Feb - 22:38:12 10° NNW 22:40:45 21° NNE 22:43:19 10° E night (unlit)
09 Feb - 00:14:18 10° WNW 00:17:16 33° SW 00:20:14 10° SSE night (unlit)
09 Feb - 15:15:22 10° SSW 15:18:15 30° SE 15:21:08 10° ENE daylight
09 Feb - 16:52:03 10° W 16:54:42 23° NNW 16:57:22 10° NNE daylight
09 Feb - 21:46:17 10° N 21:47:57 13° NNE 21:49:37 10° ENE night (unlit)
09 Feb - 23:21:31 10° NW 23:24:46 78° SW 23:27:59 10° SE night (unlit)
10 Feb - 14:23:59 10° SSE 14:25:50 14° SE 14:27:40 10° E daylight
10 Feb - 15:58:53 10° WSW 16:01:59 42° NW 16:05:06 10° NE daylight
10 Feb - 22:29:00 10° NW 22:32:09 47° NE 22:35:17 10° ESE night (unlit)
11 Feb - 00:06:46 10° W 00:08:16 13° SW 00:09:46 10° SSW night (unlit)
11 Feb - 15:06:06 10° SW 15:09:21 89° SE 15:12:36 10° NE daylight
11 Feb - 16:44:43 10° NW 16:46:12 12° NNW 16:47:40 10° N daylight
11 Feb - 21:36:40 10° NNW 21:39:25 25° NE 21:42:10 10° E night (unlit)
11 Feb - 23:13:03 10° WNW 23:15:49 26° SW 23:18:36 10° S night (unlit)
12 Feb - 14:13:44 10° SSW 14:16:47 38° SE 14:19:50 10° ENE daylight
12 Feb - 15:50:52 10° W 15:53:19 19° NNW 15:55:47 10° NNE daylight
12 Feb - 20:44:35 10° N 20:46:35 15° NNE 20:48:34 10° ENE visible
12 Feb - 22:20:05 10° NW 22:23:17 60° SW 22:26:29 10° SE night (unlit)
13 Feb - 13:21:58 10° S 13:24:16 18° SE 13:26:34 10° E daylight
13 Feb - 14:57:31 10° WSW 15:00:31 34° NW 15:03:32 10° NNE daylight
13 Feb - 21:27:26 10° NW 21:30:39 59° NE 21:33:50 10° ESE night (unlit)
14 Feb - 14:04:33 10° SW 14:07:48 72° NW 14:11:02 10° NE daylight
14 Feb - 15:43:47 10° NW 15:44:44 11° NNW 15:45:41 10° N daylight
14 Feb - 20:35:00 10° NNW 20:37:54 29° NE 20:40:47 10° E visible
14 Feb - 22:11:41 10° WNW 22:14:12 21° SW 22:16:43 10° S night (unlit)
15 Feb - 13:12:00 10° SSW 13:15:09 49° SE 13:18:18 10° ENE daylight
15 Feb - 14:49:33 10° WNW 14:51:46 17° NNW 14:54:00 10° NNE daylight
15 Feb - 19:42:45 10° NNW 19:45:02 17° NNE 19:47:18 10° ENE visible
15 Feb - 21:18:31 10° WNW 21:21:39 46° SW 21:24:45 10° SSE night (unlit)
